Weather Roundup
Issued by NWS

Home | Current Version | Previous Version | Text Only | Print | Product List | Glossary On
Versions: 1 2 3 4 5 6 7 8 9 10 11 12 13 14 15 16 17 18 19 20 21 22 23 24 25 26 27 28 29 30 31 32 33 34 35 36 37 38 39 40 41 42 43 44 45 46 47 48 49 50
000
NZUS93 KARX 181510
HRRWXR

CURRENT HOURLY OBSERVATIONS ACROSS
MUCH OF THE UPPER MISSISSIPPI VALLEY
NATIONAL WEATHER SERVICE LA CROSSE WI
900 AM CST THU DEC 18 2014


...SOUTHEAST MINNESOTA...


CITY           SKY/WX    TMP DP  RH WIND       PRES   REMARKS
ROCHESTER      CLOUDY    16  12  84 CALM      30.28R
ROCHESTER/MAYO CLOUDY    17  12  82 CALM      30.29R
WINONA         CLOUDY    21  18  86 CALM      30.33R
AUSTIN         CLOUDY    18  12  79 CALM      30.28R
ALBERT LEA     PTSUNNY   16  14  93 CALM      30.28R
DODGE CENTER   FLURRIES  16  12  86 CALM      30.27S
PRESTON        CLOUDY    15  12  88 CALM      30.28R
OWATONNA       MOCLDY    14  10  85 CALM      30.29R
FARIBAULT      LGT SNOW  14  10  85 CALM      30.30R
$$

...ELSEWHERE IN MINNESOTA...


CITY           SKY/WX    TMP DP  RH WIND       PRES   REMARKS
MINNEAPOLIS    FLURRIES  16  13  88 SW3       30.31R
INTNL FALLS    PTCLDY     2  -1  88 E3        30.30R
DULUTH         FLURRIES  20  15  81 NW3       30.26S
RED WING       CLOUDY    18  14  86 CALM      30.31R
REDWOOD FALLS  MOCLDY     9   6  88 S3        30.30R
MANKATO        MOCLDY    14   9  79 SE6       30.29S WCI   5
WORTHINGTON    CLOUDY    18  16  93 S7        30.24S WCI   8
FAIRMONT       CLOUDY    18  12  79 SE6       30.27S WCI   9
$$

...SOUTHWEST WISCONSIN...


CITY           SKY/WX    TMP DP  RH WIND       PRES   REMARKS
LA CROSSE      CLOUDY    23  16  74 CALM      30.31S
PRAIRIE DU CHI SUNNY     18  13  82 CALM      30.32R
BOSCOBEL       MOSUNNY   16  12  84 CALM      30.32R
LONE ROCK      CLOUDY    22  15  75 CALM      30.31R
PLATTEVILLE    MOSUNNY   17  15  89 CALM      30.29S
FORT MC COY    CLOUDY    22  17  83 CALM      30.31R
CAMP DOUGLAS   CLOUDY    21  21 100 W2        30.29R
VIROQUA        CLOUDY    21  19  91 CALM      30.26S
WIS DELLS      CLOUDY    22  18  81 CALM      30.28R
$$

...ELSEWHERE IN WISCONSIN...


CITY           SKY/WX    TMP DP  RH WIND       PRES   REMARKS
MILWAUKEE      CLOUDY    24  18  77 NW7       30.28R WCI  16
MADISON        CLOUDY    22  18  85 CALM      30.28S
GREEN BAY      CLOUDY    27  20  75 N7        30.28R WCI  19
EAU CLAIRE     CLOUDY    23  18  81 CALM      30.29S
BLACK RVR FLS  CLOUDY    22  19  89 CALM      30.29S
MEDFORD        CLOUDY    22  18  87 E6        30.25R WCI  14
WAUSAU         CLOUDY    23  18  81 E7        30.25R WCI  15
WIS RAPIDS     CLOUDY    24  20  84 CALM      30.29R
MARSHFIELD     CLOUDY    24  19  81 NE7       30.26R WCI  16
RICE LAKE      CLOUDY    22  19  87 NE3       30.30R
$$

...NORTHEAST IOWA...


CITY           SKY/WX    TMP DP  RH WIND       PRES   REMARKS
DECORAH        CLOUDY    16  12  86 CALM      30.28R
MASON CITY     CLOUDY    18  15  88 SW3       30.29F
CHARLES CITY   CLOUDY    18  14  86 CALM      30.30S
OELWEIN        MOSUNNY   16  12  86 CALM      30.29F
$$

...ELSEWHERE IN IOWA...


CITY           SKY/WX    TMP DP  RH WIND       PRES   REMARKS
DES MOINES     CLOUDY    23  17  78 SE3       30.29S
IOWA CITY      CLOUDY    21  16  81 NE3       30.32S
FORT DODGE     CLOUDY    19  16  86 SE3       30.28S
$$

...NORTHERN ILLINOIS...


CITY           SKY/WX    TMP DP  RH WIND       PRES   REMARKS
CHICAGO-OHARE  PTSUNNY   22  15  75 W6        30.29S WCI  14
CHICAGO-MIDWAY CLOUDY    25  16  68 W5        30.31R WCI  19
MOLINE         CLOUDY    22  17  81 CALM      30.31S
ROCKFORD       CLOUDY    20  14  77 CALM      30.33R
PEORIA         CLOUDY    24  19  81 E3        30.32R
$$

NOTE: "FAIR" INDICATES FEW OR NO CLOUDS BELOW 12,000 FEET WITH NO
SIGNIFICANT WEATHER AND/OR OBSTRUCTIONS TO VISIBILITY. WIND
SPEEDS ARE IN MILES-PER-HOUR.



USA.gov is the U.S. government's official web portal to all federal, state and local government web resources and services.